{"data":{"norad_id":48571,"intl_designator":"2021-041U","name":"STARLINK-2221","alt_names":[],"object_type":"PAYLOAD","status":"ACTIVE","operator":null,"country":"US","launch_date":"2021-05-15","launch_site_code":"AFETR","launch_vehicle":null,"mission":null,"orbit_class":"UNKNOWN","rcs_meters":null,"size_class":null,"mass_kg":null,"dimensions":null,"purposes":["comms"],"wikipedia_slug":null,"has_3d_model":false,"image_url":null,"decayed_at":null,"tle_current":{"epoch":"2026-05-24T23:48:19.872288Z","epoch_age_seconds":69633,"freshness":"FRESH","line1":"1 48571U 21041U   26144.99189667  .00000986  00000+0  43522-4 0  9997","line2":"2 48571  53.1590 144.6709 0001335  65.0838 295.0302 15.31704479276785","mean_motion":15.31704479,"eccentricity":0.0001335,"inclination_deg":53.159,"raan_deg":144.6709,"arg_perigee_deg":65.0838,"mean_anomaly_deg":295.0302,"bstar":4.3522e-5,"rev_number":27678,"period_min":94.012913048353,"perigee_km":469.81232029583,"apogee_km":471.64096688867,"semimajor_km":6848.8636435923,"source":"CELESTRAK","updated_at":"2026-05-25T13:38:16.727158Z"}}}